This is the latest recevied weather packets stored in our database for station/object AA4OM-2. If no packets are shown the sender has not sent any weather packets the latest 10 day(s).
| Time | Temp. | Humidity | Pressure | Rain* | Wind** | Luminosity | Snow |
|---|---|---|---|---|---|---|---|
| 1777071415 | 21.11° C | 85% | 1009.7 hPa | 0 mm | - | 120 W/m² | - |
| 1777071109 | 20.56° C | 87% | 1009.7 hPa | 0 mm | - | 142 W/m² | - |
| 1777070806 | 20.56° C | 88% | 1009.4 hPa | 0 mm | - | 137 W/m² | - |
| 1777070504 | 20.56° C | 89% | 1009.6 hPa | 0 mm | - | 151 W/m² | - |
| 1777070202 | 20.56° C | 88% | 1009.7 hPa | 0 mm | - | 146 W/m² | - |
| 1777069898 | 20.56° C | 90% | 1009.2 hPa | 0 mm | - | 130 W/m² | - |
| 1777069597 | 20° C | 90% | 1009.4 hPa | 0 mm | - | 105 W/m² | - |
| 1777069293 | 20° C | 91% | 1009.5 hPa | 0 mm | - | 81 W/m² | - |
| 1777068990 | 20° C | 91% | 1009.2 hPa | 0 mm | - | 74 W/m² | - |
| 1777068686 | 20° C | 91% | 1009.4 hPa | 0 mm | - | 67 W/m² | - |
| 1777068386 | 20° C | 91% | 1009.3 hPa | 0 mm | - | 72 W/m² | - |
| 1777068081 | 19.44° C | 91% | 1009.5 hPa | 0 mm | - | 72 W/m² | - |
| 1777067780 | 20° C | 92% | 1009.2 hPa | 0 mm | - | 62 W/m² | - |
| 1777067480 | 20° C | 91% | 1009.1 hPa | 0 mm | - | 56 W/m² | - |
| 1777067178 | 20° C | 90% | 1009.2 hPa | 0 mm | - | 55 W/m² | - |
| 1777066875 | 20° C | 89% | 1009 hPa | 0 mm | - | 54 W/m² | - |
| 1777066575 | 20° C | 89% | 1009.2 hPa | 0 mm | - | 57 W/m² | - |
| 1777066270 | 20° C | 90% | 1009.3 hPa | 0 mm | - | 63 W/m² | - |
| 1777065970 | 20° C | 89% | 1009.1 hPa | 0 mm | - | 72 W/m² | - |
| 1777065666 | 20° C | 89% | 1009.2 hPa | 0 mm | - | 78 W/m² | - |
| 1777065366 | 20° C | 90% | 1009.2 hPa | 0 mm | - | 68 W/m² | - |
| 1777065061 | 20° C | 91% | 1009.1 hPa | 0 mm | - | 62 W/m² | - |
| 1777064759 | 20° C | 91% | 1009.1 hPa | 0 mm | - | 55 W/m² | - |
| 1777064455 | 20° C | 91% | 1009.2 hPa | 0 mm | - | 59 W/m² | - |
| 1777064151 | 20° C | 91% | 1009.3 hPa | 0 mm | - | 67 W/m² | - |
* Rain latest hour (hover to see other rain measurements)
** Current wind speed in m/s (hover to see current wind gust speed)